Time,TemperatureF,DewpointF,PressureIn,WindDirection,WindDirectionDegrees,WindSpeedMPH,WindSpeedGustMPH,Humidity,HourlyPrecipIn,Conditions,Clouds,dailyrainin,SolarRadiationWatts/m^2,SoftwareType,DateUTC
2013-01-08 00:03:00,33.4,29.1,30.10,SSW,198,4.6,4.6,84,0.00,CLR,,0.03,0.0,WeatherDisplay:10.37,2013-01-08 06:03:00,
2013-01-08 00:08:00,33.3,29.0,30.09,SSW,198,0.0,0.0,84,0.00,CLR,,0.03,0.0,WeatherDisplay:10.37,2013-01-08 06:08:00,
2013-01-08 00:13:00,33.1,28.8,30.09,SSW,198,3.5,0.0,84,0.00,CLR,,0.03,0.0,WeatherDisplay:10.37,2013-01-08 06:13:00,
2013-01-08 00:18:00,33.0,28.7,30.10,SSW,198,3.5,3.5,84,0.00,CLR,,0.03,0.0,WeatherDisplay:10.37,2013-01-08 06:18:00,
2013-01-08 00:23:00,33.0,28.7,30.09,SSW,198,2.0,2.0,84,0.00,CLR,,0.03,0.0,WeatherDisplay:10.37,2013-01-08 06:23:00,
2013-01-08 00:28:00,32.8,28.5,30.09,SSW,198,4.6,4.6,84,0.00,CLR,,0.03,0.0,WeatherDisplay:10.37,2013-01-08 06:28:00,
2013-01-08 00:33:00,32.8,28.5,30.09,SSW,198,3.5,3.5,84,0.00,CLR,,0.03,0.0,WeatherDisplay:10.37,2013-01-08 06:33:00,
2013-01-08 00:38:00,32.7,28.4,30.09,SSW,198,3.5,3.5,84,0.00,CLR,,0.03,0.0,WeatherDisplay:10.37,2013-01-08 06:38:00,
2013-01-08 00:43:00,32.6,28.3,30.10,SSW,198,3.5,3.5,84,0.00,CLR,,0.03,0.0,WeatherDisplay:10.37,2013-01-08 06:43:00,
2013-01-08 00:49:00,32.5,28.2,30.10,SSW,198,3.5,3.5,84,0.00,CLR,,0.03,0.0,WeatherDisplay:10.37,2013-01-08 06:49:00,
2013-01-08 00:54:00,32.4,28.1,30.10,SSW,194,3.5,3.5,84,0.00,CLR,,0.03,0.0,WeatherDisplay:10.37,2013-01-08 06:54:00,
2013-01-08 00:59:00,32.4,28.4,30.10,SSW,194,2.3,0.0,85,0.00,CLR,,0.03,0.0,WeatherDisplay:10.37,2013-01-08 06:59:00,
2013-01-08 01:04:00,32.4,28.4,30.10,SSW,194,2.3,2.3,85,0.00,CLR,,0.03,0.0,WeatherDisplay:10.37,2013-01-08 07:04:00,
2013-01-08 01:09:00,32.4,28.4,30.10,SSW,194,0.0,0.0,85,0.00,CLR,,0.03,0.0,WeatherDisplay:10.37,2013-01-08 07:09:00,
2013-01-08 01:14:00,32.4,28.4,30.10,South,191,3.5,3.5,85,0.00,CLR,,0.03,0.0,WeatherDisplay:10.37,2013-01-08 07:14:00,
2013-01-08 01:19:00,32.3,28.3,30.10,South,191,3.5,3.5,85,0.00,CLR,,0.03,0.0,WeatherDisplay:10.37,2013-01-08 07:19:00,
2013-01-08 01:24:00,32.4,28.4,30.10,SSW,200,4.0,4.0,85,0.00,CLR,,0.03,0.0,WeatherDisplay:10.37,2013-01-08 07:24:00,
2013-01-08 01:29:00,32.6,28.6,30.10,South,188,4.6,4.6,85,0.00,CLR,,0.03,0.0,WeatherDisplay:10.37,2013-01-08 07:29:00,
2013-01-08 01:34:00,32.6,28.6,30.10,South,188,3.5,3.5,85,0.00,CLR,,0.03,0.0,WeatherDisplay:10.37,2013-01-08 07:34:00,
2013-01-08 01:39:00,32.8,28.8,30.10,SSW,194,4.6,4.6,85,0.00,CLR,,0.03,0.0,WeatherDisplay:10.37,2013-01-08 07:39:00,
2013-01-08 01:44:00,32.9,28.9,30.10,SSW,194,3.5,3.5,85,0.00,CLR,,0.03,0.0,WeatherDisplay:10.37,2013-01-08 07:44:00,
2013-01-08 01:49:00,33.0,28.7,30.10,SSW,198,4.6,4.6,84,0.00,CLR,,0.03,0.0,WeatherDisplay:10.37,2013-01-08 07:49:00,
2013-01-08 01:54:00,33.0,28.7,30.10,SSW,200,5.8,5.8,84,0.00,CLR,,0.03,0.0,WeatherDisplay:10.37,2013-01-08 07:54:00,
2013-01-08 01:59:00,33.0,28.7,30.10,SSW,206,4.6,4.6,84,0.00,CLR,,0.03,0.0,WeatherDisplay:10.37,2013-01-08 07:59:00,
2013-01-08 02:04:00,33.0,28.7,30.10,SSW,205,5.8,5.8,84,0.00,CLR,,0.03,0.0,WeatherDisplay:10.37,2013-01-08 08:04:00,
2013-01-08 02:09:00,33.0,28.7,30.10,South,179,4.6,4.6,84,0.00,CLR,,0.03,0.0,WeatherDisplay:10.37,2013-01-08 08:09:00,
2013-01-08 02:14:00,32.9,28.6,30.10,SSW,194,5.0,5.0,84,0.00,CLR,,0.03,0.0,WeatherDisplay:10.37,2013-01-08 08:14:00,
2013-01-08 02:19:00,32.9,28.6,30.10,SSW,196,5.8,5.8,84,0.00,CLR,,0.03,0.0,WeatherDisplay:10.37,2013-01-08 08:19:00,
2013-01-08 02:24:00,32.9,28.6,30.10,SSW,198,4.6,4.6,84,0.00,CLR,,0.03,0.0,WeatherDisplay:10.37,2013-01-08 08:24:00,
2013-01-08 02:29:00,32.9,28.6,30.10,SSW,198,6.9,6.9,84,0.00,CLR,,0.03,0.0,WeatherDisplay:10.37,2013-01-08 08:29:00,
2013-01-08 02:34:00,32.8,28.5,30.11,SSW,206,5.8,5.8,84,0.00,CLR,,0.03,0.0,WeatherDisplay:10.37,2013-01-08 08:34:00,
2013-01-08 02:39:00,32.8,28.5,30.11,South,191,5.8,5.8,84,0.00,CLR,,0.03,0.0,WeatherDisplay:10.37,2013-01-08 08:39:00,
2013-01-08 02:44:00,32.7,28.4,30.11,SSW,192,3.5,3.5,84,0.00,CLR,,0.03,0.0,WeatherDisplay:10.37,2013-01-08 08:44:00,
2013-01-08 02:49:00,32.7,28.4,30.11,SSW,192,5.0,5.0,84,0.00,CLR,,0.03,0.0,WeatherDisplay:10.37,2013-01-08 08:49:00,
2013-01-08 02:54:00,32.6,28.3,30.10,SSW,192,3.5,3.5,84,0.00,CLR,,0.03,0.0,WeatherDisplay:10.37,2013-01-08 08:54:00,
2013-01-08 02:59:00,32.6,28.3,30.10,SSW,192,4.0,4.0,84,0.00,CLR,,0.03,0.0,WeatherDisplay:10.37,2013-01-08 08:59:00,
2013-01-08 03:04:00,32.6,28.3,30.10,SSW,192,2.3,2.3,84,0.00,CLR,,0.03,0.0,WeatherDisplay:10.37,2013-01-08 09:04:00,
2013-01-08 03:09:00,32.5,28.2,30.10,SSW,192,3.5,3.5,84,0.00,CLR,,0.03,0.0,WeatherDisplay:10.37,2013-01-08 09:09:00,
2013-01-08 03:14:00,32.4,28.1,30.10,SSW,195,2.3,2.3,84,0.00,CLR,,0.03,0.0,WeatherDisplay:10.37,2013-01-08 09:14:00,
2013-01-08 03:19:00,32.3,28.0,30.10,SSW,195,3.5,3.5,84,0.00,CLR,,0.03,0.0,WeatherDisplay:10.37,2013-01-08 09:19:00,
2013-01-08 03:24:00,32.3,28.0,30.10,SSW,195,0.0,0.0,84,0.00,CLR,,0.03,0.0,WeatherDisplay:10.37,2013-01-08 09:24:00,
2013-01-08 03:29:00,32.2,27.9,30.10,SSW,195,0.0,0.0,84,0.00,CLR,,0.03,0.0,WeatherDisplay:10.37,2013-01-08 09:29:00,
2013-01-08 03:34:00,32.1,27.8,30.10,SSW,195,0.0,0.0,84,0.00,CLR,,0.03,0.0,WeatherDisplay:10.37,2013-01-08 09:34:00,
2013-01-08 03:39:00,32.0,27.7,30.10,SSW,195,0.0,0.0,84,0.00,CLR,,0.03,0.0,WeatherDisplay:10.37,2013-01-08 09:39:00,
2013-01-08 03:44:00,31.9,27.6,30.10,SSW,195,0.0,0.0,84,0.00,CLR,,0.03,0.0,WeatherDisplay:10.37,2013-01-08 09:44:00,
2013-01-08 03:49:00,31.9,27.6,30.10,SSW,195,0.0,0.0,84,0.00,CLR,,0.03,0.0,WeatherDisplay:10.37,2013-01-08 09:49:00,
2013-01-08 03:54:00,31.7,27.4,30.10,SSW,195,0.0,0.0,84,0.00,CLR,,0.03,0.0,WeatherDisplay:10.37,2013-01-08 09:54:00,
2013-01-08 03:59:00,31.6,27.3,30.10,SSW,195,0.0,0.0,84,0.00,CLR,,0.03,0.0,WeatherDisplay:10.37,2013-01-08 09:59:00,
2013-01-08 04:04:00,31.5,27.2,30.10,SSW,195,0.0,0.2,84,0.00,CLR,,0.03,0.0,WeatherDisplay:10.37,2013-01-08 10:04:00,
2013-01-08 04:09:00,31.3,27.0,30.11,SSW,195,0.0,0.0,84,0.00,CLR,,0.03,0.0,WeatherDisplay:10.37,2013-01-08 10:09:00,
2013-01-08 04:14:00,31.2,26.9,30.10,SSW,195,0.0,0.0,84,0.00,CLR,,0.03,0.0,WeatherDisplay:10.37,2013-01-08 10:14:00,
2013-01-08 04:19:00,31.0,26.7,30.10,SSW,195,1.2,0.0,84,0.00,CLR,,0.03,0.0,WeatherDisplay:10.37,2013-01-08 10:19:00,
2013-01-08 04:24:00,31.0,26.7,30.10,SSW,195,0.0,0.0,84,0.00,CLR,,0.03,0.0,WeatherDisplay:10.37,2013-01-08 10:24:00,
2013-01-08 04:29:00,30.9,26.6,30.10,SSW,195,3.5,3.5,84,0.00,CLR,,0.03,0.0,WeatherDisplay:10.37,2013-01-08 10:29:00,
2013-01-08 04:34:00,30.7,26.7,30.09,SSW,195,0.0,0.4,85,0.00,CLR,,0.03,0.0,WeatherDisplay:10.37,2013-01-08 10:34:00,
2013-01-08 04:39:00,30.6,26.6,30.09,SSW,194,3.5,0.0,85,0.00,CLR,,0.03,0.0,WeatherDisplay:10.37,2013-01-08 10:39:00,
2013-01-08 04:44:00,30.6,26.6,30.10,SSW,194,3.5,3.5,85,0.00,CLR,,0.03,0.0,WeatherDisplay:10.37,2013-01-08 10:44:00,
2013-01-08 04:49:00,30.6,26.6,30.10,SSW,194,0.0,0.0,85,0.00,CLR,,0.03,0.0,WeatherDisplay:10.37,2013-01-08 10:49:00,
2013-01-08 04:54:00,30.5,26.5,30.10,SSW,194,0.0,0.0,85,0.00,CLR,,0.03,0.0,WeatherDisplay:10.37,2013-01-08 10:54:00,
2013-01-08 04:59:00,30.5,26.5,30.10,SSW,194,0.0,0.0,85,0.00,CLR,,0.03,0.0,WeatherDisplay:10.37,2013-01-08 10:59:00,
2013-01-08 05:04:00,30.4,26.4,30.10,SSW,194,0.0,0.0,85,0.00,CLR,,0.03,0.0,WeatherDisplay:10.37,2013-01-08 11:04:00,
2013-01-08 05:09:00,30.3,26.3,30.10,SSW,194,0.0,0.0,85,0.00,CLR,,0.03,0.0,WeatherDisplay:10.37,2013-01-08 11:09:00,
2013-01-08 05:14:00,30.2,26.2,30.10,SSW,194,0.0,0.0,85,0.00,CLR,,0.03,0.0,WeatherDisplay:10.37,2013-01-08 11:14:00,
2013-01-08 05:19:00,30.1,26.1,30.10,SSW,194,0.0,0.0,85,0.00,CLR,,0.03,0.0,WeatherDisplay:10.37,2013-01-08 11:19:00,
2013-01-08 05:24:00,29.9,25.9,30.10,SSW,194,0.0,0.0,85,0.00,CLR,,0.03,0.0,WeatherDisplay:10.37,2013-01-08 11:24:00,
2013-01-08 05:29:00,29.7,25.7,30.10,SSE,157,4.6,4.6,85,0.00,CLR,,0.03,0.0,WeatherDisplay:10.37,2013-01-08 11:29:00,
2013-01-08 05:34:00,29.6,25.6,30.09,SSE,157,0.0,0.0,85,0.00,CLR,,0.03,0.0,WeatherDisplay:10.37,2013-01-08 11:34:00,
2013-01-08 05:39:00,29.5,25.5,30.10,SSE,157,0.0,0.0,85,0.00,CLR,,0.03,0.0,WeatherDisplay:10.37,2013-01-08 11:39:00,
2013-01-08 05:44:00,29.4,25.4,30.10,SSE,157,0.0,0.0,85,0.00,CLR,,0.03,0.0,WeatherDisplay:10.37,2013-01-08 11:44:00,
2013-01-08 05:49:00,29.4,25.7,30.10,SSE,156,0.0,0.0,86,0.00,CLR,,0.03,0.0,WeatherDisplay:10.37,2013-01-08 11:49:00,
2013-01-08 05:54:00,29.4,25.7,30.10,SSE,157,0.0,0.0,86,0.00,CLR,,0.03,0.0,WeatherDisplay:10.37,2013-01-08 11:54:00,
2013-01-08 05:59:00,29.5,25.8,30.10,SSE,157,0.0,0.0,86,0.00,CLR,,0.03,0.0,WeatherDisplay:10.37,2013-01-08 11:59:00,
2013-01-08 06:04:00,29.5,25.8,30.10,SSE,157,0.0,0.0,86,0.00,CLR,,0.03,0.0,WeatherDisplay:10.37,2013-01-08 12:04:00,
2013-01-08 06:09:00,29.6,25.9,30.10,SSE,156,0.0,0.0,86,0.00,CLR,,0.03,0.0,WeatherDisplay:10.37,2013-01-08 12:09:00,
2013-01-08 06:14:00,29.6,25.9,30.10,SSE,157,0.0,0.0,86,0.00,CLR,,0.03,0.0,WeatherDisplay:10.37,2013-01-08 12:14:00,
2013-01-08 06:20:00,29.5,25.8,30.10,SSE,156,0.0,0.0,86,0.00,CLR,,0.03,0.0,WeatherDisplay:10.37,2013-01-08 12:20:00,
2013-01-08 06:25:00,29.5,25.8,30.10,SSE,158,3.5,3.5,86,0.00,CLR,,0.03,0.0,WeatherDisplay:10.37,2013-01-08 12:25:00,
2013-01-08 06:30:00,29.7,26.0,30.10,SSE,159,2.3,2.3,86,0.00,CLR,,0.03,0.0,WeatherDisplay:10.37,2013-01-08 12:30:00,
2013-01-08 06:35:00,29.9,26.2,30.11,South,178,3.5,3.5,86,0.00,CLR,,0.03,0.0,WeatherDisplay:10.37,2013-01-08 12:35:00,
2013-01-08 06:40:00,30.0,26.3,30.11,South,179,4.6,4.6,86,0.00,CLR,,0.03,0.0,WeatherDisplay:10.37,2013-01-08 12:40:00,
2013-01-08 06:45:00,30.1,26.4,30.11,SSW,195,4.6,4.6,86,0.00,CLR,,0.03,0.0,WeatherDisplay:10.37,2013-01-08 12:45:00,
2013-01-08 06:50:00,30.2,26.5,30.11,SSW,194,4.6,4.6,86,0.00,CLR,,0.03,0.0,WeatherDisplay:10.37,2013-01-08 12:50:00,
2013-01-08 06:55:00,30.3,26.3,30.11,SSW,194,3.5,3.5,85,0.00,CLR,,0.03,0.0,WeatherDisplay:10.37,2013-01-08 12:55:00,
2013-01-08 07:00:00,30.3,26.3,30.11,South,190,5.8,5.8,85,0.00,CLR,,0.03,0.0,WeatherDisplay:10.37,2013-01-08 13:00:00,
2013-01-08 07:05:00,30.4,26.4,30.11,South,190,3.5,3.5,85,0.00,OVC,,0.03,0.0,WeatherDisplay:10.37,2013-01-08 13:05:00,
2013-01-08 07:10:00,30.4,26.4,30.11,South,190,0.0,0.0,85,0.00,OVC,,0.03,0.0,WeatherDisplay:10.37,2013-01-08 13:10:00,
2013-01-08 07:15:00,30.4,26.4,30.11,South,190,0.0,0.0,85,0.00,OVC,,0.03,0.0,WeatherDisplay:10.37,2013-01-08 13:15:00,
2013-01-08 07:20:00,30.3,26.3,30.11,South,190,0.0,0.0,85,0.00,OVC,,0.03,0.0,WeatherDisplay:10.37,2013-01-08 13:20:00,
2013-01-08 07:25:00,30.3,26.0,30.11,South,190,0.0,0.0,84,0.00,OVC,,0.03,0.0,WeatherDisplay:10.37,2013-01-08 13:25:00,
2013-01-08 07:30:00,30.1,25.8,30.11,South,190,2.3,2.3,84,0.00,OVC,,0.03,5.0,WeatherDisplay:10.37,2013-01-08 13:30:00,
2013-01-08 07:35:00,30.1,25.8,30.11,South,190,0.0,0.0,84,0.00,BKN,,0.03,7.0,WeatherDisplay:10.37,2013-01-08 13:35:00,
2013-01-08 07:40:00,29.9,25.7,30.11,South,190,0.0,0.0,84,0.00,OVC,,0.03,12.0,WeatherDisplay:10.37,2013-01-08 13:40:00,
2013-01-08 07:45:00,29.9,25.7,30.12,South,190,0.0,0.0,84,0.00,OVC,,0.03,16.0,WeatherDisplay:10.37,2013-01-08 13:45:00,
2013-01-08 07:50:00,29.8,25.6,30.12,South,190,0.0,0.0,84,0.00,OVC,,0.03,19.0,WeatherDisplay:10.37,2013-01-08 13:50:00,
2013-01-08 07:55:00,29.8,25.8,30.12,South,190,0.0,0.0,85,0.00,OVC,,0.03,25.0,WeatherDisplay:10.37,2013-01-08 13:55:00,
2013-01-08 08:00:00,29.8,25.8,30.12,South,190,0.0,0.0,85,0.00,OVC,,0.03,28.0,WeatherDisplay:10.37,2013-01-08 14:00:00,
2013-01-08 08:05:00,29.8,25.8,30.12,South,190,0.0,0.0,85,0.00,OVC,,0.03,32.0,WeatherDisplay:10.37,2013-01-08 14:05:00,
2013-01-08 08:10:00,29.9,25.9,30.12,South,190,0.0,0.0,85,0.00,OVC,,0.03,35.0,WeatherDisplay:10.37,2013-01-08 14:10:00,
2013-01-08 08:15:00,29.9,25.9,30.12,South,190,0.0,0.0,85,0.00,OVC,,0.03,39.0,WeatherDisplay:10.37,2013-01-08 14:15:00,
2013-01-08 08:20:00,30.1,26.4,30.13,South,190,0.0,0.0,86,0.00,OVC,,0.03,46.0,WeatherDisplay:10.37,2013-01-08 14:20:00,
2013-01-08 08:25:00,30.2,26.5,30.13,South,190,0.0,0.0,86,0.00,OVC,,0.03,54.0,WeatherDisplay:10.37,2013-01-08 14:25:00,
2013-01-08 08:30:00,30.3,26.6,30.13,South,190,0.0,0.0,86,0.00,OVC,,0.03,65.0,WeatherDisplay:10.37,2013-01-08 14:30:00,
2013-01-08 08:35:00,30.6,26.9,30.13,South,190,0.0,0.0,86,0.00,OVC,,0.03,77.0,WeatherDisplay:10.37,2013-01-08 14:35:00,
2013-01-08 08:40:00,30.8,27.1,30.12,South,182,3.5,3.5,86,0.00,BKN,,0.03,95.0,WeatherDisplay:10.37,2013-01-08 14:40:00,
2013-01-08 08:45:00,31.3,27.6,30.12,SSW,197,3.5,3.5,86,0.00,BKN,,0.03,102.0,WeatherDisplay:10.37,2013-01-08 14:45:00,
2013-01-08 08:50:00,31.7,27.7,30.12,SSW,196,0.0,0.0,85,0.00,BKN,,0.03,107.0,WeatherDisplay:10.37,2013-01-08 14:50:00,
2013-01-08 08:55:00,32.2,28.2,30.12,SSW,198,0.0,0.0,85,0.00,BKN,,0.03,107.0,WeatherDisplay:10.37,2013-01-08 14:55:00,
2013-01-08 09:00:00,32.5,28.2,30.12,SSW,198,0.0,0.0,84,0.00,BKN,,0.03,116.0,WeatherDisplay:10.37,2013-01-08 15:00:00,
2013-01-08 09:05:00,32.7,28.4,30.13,SSW,198,0.0,0.0,84,0.00,BKN,,0.03,125.0,WeatherDisplay:10.37,2013-01-08 15:05:00,
2013-01-08 09:10:00,33.0,28.7,30.12,SSW,198,0.0,0.0,84,0.00,BKN,,0.03,130.0,WeatherDisplay:10.37,2013-01-08 15:10:00,
2013-01-08 09:15:00,33.2,28.9,30.13,SSW,198,0.0,0.0,84,0.00,BKN,,0.03,132.0,WeatherDisplay:10.37,2013-01-08 15:15:00,
2013-01-08 09:20:00,33.5,29.2,30.13,SSW,198,0.0,0.0,84,0.00,BKN,,0.03,137.0,WeatherDisplay:10.37,2013-01-08 15:20:00,
2013-01-08 09:25:00,33.9,29.6,30.13,SSW,198,0.0,0.0,84,0.00,BKN,,0.03,137.0,WeatherDisplay:10.37,2013-01-08 15:25:00,
2013-01-08 09:30:00,34.2,29.6,30.12,SSW,198,0.0,0.0,83,0.00,OVC,,0.03,137.0,WeatherDisplay:10.37,2013-01-08 15:30:00,
2013-01-08 09:35:00,34.4,29.5,30.12,South,184,0.0,0.1,82,0.00,OVC,,0.03,139.0,WeatherDisplay:10.37,2013-01-08 15:35:00,
2013-01-08 09:40:00,35.1,29.6,30.12,South,184,6.9,6.9,80,0.00,OVC,,0.03,144.0,WeatherDisplay:10.37,2013-01-08 15:40:00,
2013-01-08 09:45:00,35.4,29.5,30.13,SSE,150,4.6,4.6,79,0.00,OVC,,0.03,141.0,WeatherDisplay:10.37,2013-01-08 15:45:00,
2013-01-08 09:50:00,35.7,29.8,30.13,South,178,4.6,4.6,79,0.00,OVC,,0.03,134.0,WeatherDisplay:10.37,2013-01-08 15:50:00,
2013-01-08 09:55:00,35.9,29.7,30.12,South,178,3.5,3.5,78,0.00,OVC,,0.03,135.0,WeatherDisplay:10.37,2013-01-08 15:55:00,
2013-01-08 10:00:00,36.1,29.9,30.13,South,178,0.0,0.0,78,0.00,OVC,,0.03,139.0,WeatherDisplay:10.37,2013-01-08 16:00:00,
2013-01-08 10:05:00,36.2,30.0,30.13,SSW,194,4.6,4.6,78,0.00,OVC,,0.03,151.0,WeatherDisplay:10.37,2013-01-08 16:05:00,
2013-01-08 10:10:00,36.4,29.9,30.12,SSW,194,4.6,4.6,77,0.00,OVC,,0.03,156.0,WeatherDisplay:10.37,2013-01-08 16:10:00,
2013-01-08 10:15:00,36.6,30.1,30.13,SSW,195,3.5,0.0,77,0.00,OVC,,0.03,162.0,WeatherDisplay:10.37,2013-01-08 16:15:00,
2013-01-08 10:20:00,36.8,30.3,30.12,SSW,195,3.5,3.5,77,0.00,OVC,,0.03,165.0,WeatherDisplay:10.37,2013-01-08 16:20:00,
2013-01-08 10:25:00,37.0,30.5,30.12,SSW,202,5.8,5.8,77,0.00,OVC,,0.03,167.0,WeatherDisplay:10.37,2013-01-08 16:25:00,
2013-01-08 10:30:00,37.1,30.6,30.12,SSW,194,5.0,5.0,77,0.00,OVC,,0.03,167.0,WeatherDisplay:10.37,2013-01-08 16:30:00,
2013-01-08 10:35:00,37.3,30.7,30.12,SSW,194,4.6,4.6,77,0.00,OVC,,0.03,176.0,WeatherDisplay:10.37,2013-01-08 16:35:00,
2013-01-08 10:40:00,37.5,30.6,30.12,SSW,199,5.8,5.8,76,0.00,OVC,,0.03,185.0,WeatherDisplay:10.37,2013-01-08 16:40:00,
2013-01-08 10:45:00,37.6,30.7,30.12,South,173,4.6,4.6,76,0.00,BKN,,0.03,195.0,WeatherDisplay:10.37,2013-01-08 16:45:00,
2013-01-08 10:50:00,37.8,30.9,30.11,South,174,3.5,3.5,76,0.00,BKN,,0.03,227.0,WeatherDisplay:10.37,2013-01-08 16:50:00,
2013-01-08 10:55:00,38.1,31.2,30.11,SSW,194,6.9,6.9,76,0.00,BKN,,0.03,258.0,WeatherDisplay:10.37,2013-01-08 16:55:00,
2013-01-08 11:00:00,38.4,31.2,30.11,South,189,4.0,6.7,75,0.00,BKN,,0.03,271.0,WeatherDisplay:10.37,2013-01-08 17:00:00,
2013-01-08 11:05:00,38.8,31.6,30.11,South,184,3.5,3.5,75,0.00,BKN,,0.03,251.0,WeatherDisplay:10.37,2013-01-08 17:05:00,
2013-01-08 11:10:00,39.0,31.7,30.10,SSE,166,3.5,3.5,75,0.00,BKN,,0.03,237.0,WeatherDisplay:10.37,2013-01-08 17:10:00,
2013-01-08 11:15:00,39.3,32.0,30.10,SSE,158,3.5,3.5,75,0.00,BKN,,0.03,237.0,WeatherDisplay:10.37,2013-01-08 17:15:00,
2013-01-08 11:20:00,39.6,32.0,30.10,SSE,155,3.5,3.5,74,0.00,BKN,,0.03,229.0,WeatherDisplay:10.37,2013-01-08 17:20:00,
2013-01-08 11:26:00,39.8,32.2,30.09,SSE,161,6.9,6.9,74,0.00,BKN,,0.03,225.0,WeatherDisplay:10.37,2013-01-08 17:26:00,
2013-01-08 11:31:00,40.0,32.4,30.09,SSE,149,5.8,5.8,74,0.00,BKN,,0.03,216.0,WeatherDisplay:10.37,2013-01-08 17:31:00,
2013-01-08 11:36:00,40.1,32.5,30.09,SSE,150,3.5,3.5,74,0.00,BKN,,0.03,214.0,WeatherDisplay:10.37,2013-01-08 17:36:00,
2013-01-08 11:41:00,40.3,32.7,30.09,SSW,212,11.5,11.5,74,0.00,OVC,,0.03,211.0,WeatherDisplay:10.37,2013-01-08 17:41:00,
2013-01-08 11:46:00,40.4,32.8,30.09,South,179,6.9,6.9,74,0.00,BKN,,0.03,213.0,WeatherDisplay:10.37,2013-01-08 17:46:00,
2013-01-08 11:51:00,40.6,32.6,30.08,SSE,156,5.8,5.8,73,0.00,BKN,,0.03,230.0,WeatherDisplay:10.37,2013-01-08 17:51:00,
2013-01-08 11:56:00,40.7,32.7,30.08,SSE,165,6.0,6.0,73,0.00,BKN,,0.03,274.0,WeatherDisplay:10.37,2013-01-08 17:56:00,
2013-01-08 12:01:00,41.0,33.0,30.08,SE,135,12.0,12.0,73,0.00,BKN,,0.03,320.0,WeatherDisplay:10.37,2013-01-08 18:01:00,
2013-01-08 12:06:00,41.1,33.1,30.08,SSE,155,11.5,11.5,73,0.00,SCT,,0.03,343.0,WeatherDisplay:10.37,2013-01-08 18:06:00,
2013-01-08 12:11:00,41.3,33.3,30.08,SSE,158,6.9,6.9,73,0.00,SCT,,0.03,339.0,WeatherDisplay:10.37,2013-01-08 18:11:00,
2013-01-08 12:16:00,41.5,33.1,30.08,SSE,155,16.1,16.1,72,0.00,SCT,,0.03,322.0,WeatherDisplay:10.37,2013-01-08 18:16:00,
2013-01-08 12:21:00,41.6,33.2,30.07,SSE,159,11.5,11.5,72,0.00,BKN,,0.03,302.0,WeatherDisplay:10.37,2013-01-08 18:21:00,
2013-01-08 12:26:00,41.7,33.3,30.07,SE,129,6.9,6.9,72,0.00,SCT,,0.03,311.0,WeatherDisplay:10.37,2013-01-08 18:26:00,
2013-01-08 12:31:00,41.9,33.5,30.07,SSE,152,10.4,10.4,72,0.00,SCT,,0.03,355.0,WeatherDisplay:10.37,2013-01-08 18:31:00,
2013-01-08 12:36:00,42.1,33.7,30.06,SE,145,10.4,10.4,72,0.00,SCT,,0.03,388.0,WeatherDisplay:10.37,2013-01-08 18:36:00,
2013-01-08 12:41:00,42.4,34.0,30.06,SE,140,6.9,6.9,72,0.00,SCT,,0.03,415.0,WeatherDisplay:10.37,2013-01-08 18:41:00,
2013-01-08 12:46:00,42.6,33.5,30.06,SE,134,12.7,12.7,70,0.00,SCT,,0.03,353.0,WeatherDisplay:10.37,2013-01-08 18:46:00,
2013-01-08 12:51:00,42.5,33.4,30.06,SSW,192,13.8,13.8,70,0.00,SCT,,0.03,323.0,WeatherDisplay:10.37,2013-01-08 18:51:00,
2013-01-08 12:56:00,42.7,33.9,30.06,SE,146,11.5,11.5,71,0.00,FEW,,0.03,431.0,WeatherDisplay:10.37,2013-01-08 18:56:00,
2013-01-08 13:01:00,42.9,33.8,30.05,SSE,155,13.8,13.8,70,0.00,SCT,,0.03,394.0,WeatherDisplay:10.37,2013-01-08 19:01:00,
2013-01-08 13:06:00,43.1,34.0,30.06,SE,143,11.5,11.5,70,0.00,FEW,,0.03,431.0,WeatherDisplay:10.37,2013-01-08 19:06:00,
2013-01-08 13:11:00,43.2,34.1,30.05,SE,135,10.4,10.4,70,0.00,SCT,,0.03,387.0,WeatherDisplay:10.37,2013-01-08 19:11:00,
2013-01-08 13:16:00,43.4,34.3,30.05,SSE,160,5.8,5.8,70,0.00,FEW,,0.03,454.0,WeatherDisplay:10.37,2013-01-08 19:16:00,
2013-01-08 13:21:00,43.8,34.3,30.05,SSE,153,5.8,5.8,69,0.00,FEW,,0.03,418.0,WeatherDisplay:10.37,2013-01-08 19:21:00,
2013-01-08 13:26:00,44.2,34.3,30.05,SE,134,16.1,16.1,68,0.00,FEW,,0.03,454.0,WeatherDisplay:10.37,2013-01-08 19:26:00,
2013-01-08 13:31:00,44.3,34.4,30.05,SSE,153,11.5,11.5,68,0.00,FEW,,0.03,401.0,WeatherDisplay:10.37,2013-01-08 19:31:00,
2013-01-08 13:36:00,44.4,34.5,30.05,SSE,151,11.5,11.5,68,0.00,SCT,,0.03,334.0,WeatherDisplay:10.37,2013-01-08 19:36:00,
2013-01-08 13:41:00,44.3,34.0,30.05,SSW,192,11.5,11.5,67,0.00,SCT,,0.03,294.0,WeatherDisplay:10.37,2013-01-08 19:41:00,
2013-01-08 13:46:00,44.3,34.4,30.05,South,173,11.5,11.5,68,0.00,BKN,,0.03,253.0,WeatherDisplay:10.37,2013-01-08 19:46:00,
2013-01-08 13:51:00,44.2,34.3,30.05,South,186,11.5,11.5,68,0.00,BKN,,0.03,255.0,WeatherDisplay:10.37,2013-01-08 19:51:00,
2013-01-08 13:56:00,43.8,33.9,30.05,South,182,12.0,12.0,68,0.00,SCT,,0.03,338.0,WeatherDisplay:10.37,2013-01-08 19:56:00,
2013-01-08 14:01:00,43.9,34.0,30.05,South,188,11.5,11.5,68,0.00,FEW,,0.03,376.0,WeatherDisplay:10.37,2013-01-08 20:01:00,
2013-01-08 14:06:00,44.1,34.2,30.05,SE,144,11.5,11.5,68,0.00,FEW,,0.03,353.0,WeatherDisplay:10.37,2013-01-08 20:06:00,
2013-01-08 14:11:00,44.3,34.4,30.05,SE,141,11.5,11.5,68,0.00,SCT,,0.03,292.0,WeatherDisplay:10.37,2013-01-08 20:11:00,
2013-01-08 14:16:00,44.6,34.7,30.05,South,175,13.8,13.8,68,0.00,CLR,,0.03,459.0,WeatherDisplay:10.37,2013-01-08 20:16:00,
2013-01-08 14:21:00,45.0,34.7,30.04,SSE,156,13.8,13.8,67,0.00,CLR,,0.03,401.0,WeatherDisplay:10.37,2013-01-08 20:21:00,
2013-01-08 14:26:00,45.2,34.9,30.04,SSW,199,13.8,13.8,67,0.00,FEW,,0.03,343.0,WeatherDisplay:10.37,2013-01-08 20:26:00,
2013-01-08 14:31:00,45.5,35.2,30.04,SSE,167,11.5,11.5,67,0.00,FEW,,0.03,332.0,WeatherDisplay:10.37,2013-01-08 20:31:00,
2013-01-08 14:36:00,45.8,35.1,30.04,SSE,164,8.1,8.1,66,0.00,FEW,,0.03,322.0,WeatherDisplay:10.37,2013-01-08 20:36:00,
2013-01-08 14:41:00,45.8,35.1,30.04,SSE,164,10.4,10.4,66,0.00,FEW,,0.03,308.0,WeatherDisplay:10.37,2013-01-08 20:41:00,
2013-01-08 14:46:00,46.0,35.3,30.04,SSE,157,5.8,5.8,66,0.00,FEW,,0.03,301.0,WeatherDisplay:10.37,2013-01-08 20:46:00,
2013-01-08 14:51:00,46.0,35.3,30.04,SSE,156,11.5,11.5,66,0.00,FEW,,0.03,288.0,WeatherDisplay:10.37,2013-01-08 20:51:00,
2013-01-08 14:56:00,46.1,35.4,30.03,SSE,150,10.4,10.4,66,0.00,FEW,,0.03,271.0,WeatherDisplay:10.37,2013-01-08 20:56:00,
2013-01-08 15:01:00,46.1,35.7,30.03,South,178,9.2,9.2,67,0.00,FEW,,0.03,262.0,WeatherDisplay:10.37,2013-01-08 21:01:00,
2013-01-08 15:06:00,46.2,35.8,30.03,SSE,155,10.4,10.4,67,0.00,SCT,,0.03,253.0,WeatherDisplay:10.37,2013-01-08 21:06:00,
2013-01-08 15:11:00,46.1,36.1,30.04,SSE,167,11.5,11.5,68,0.00,FEW,,0.03,239.0,WeatherDisplay:10.37,2013-01-08 21:11:00,
2013-01-08 15:16:00,46.1,36.1,30.03,SSE,158,10.4,10.4,68,0.00,FEW,,0.03,227.0,WeatherDisplay:10.37,2013-01-08 21:16:00,
2013-01-08 15:21:00,46.0,35.7,30.03,South,172,13.8,13.8,67,0.00,SCT,,0.03,209.0,WeatherDisplay:10.37,2013-01-08 21:21:00,
2013-01-08 15:26:00,45.8,35.8,30.03,SSE,156,15.0,15.0,68,0.00,SCT,,0.03,197.0,WeatherDisplay:10.37,2013-01-08 21:26:00,
2013-01-08 15:31:00,45.6,35.6,30.03,SSE,150,11.5,11.5,68,0.00,SCT,,0.03,183.0,WeatherDisplay:10.37,2013-01-08 21:31:00,
2013-01-08 15:36:00,45.6,36.0,30.03,SSE,163,8.1,8.1,69,0.00,SCT,,0.03,169.0,WeatherDisplay:10.37,2013-01-08 21:36:00,
2013-01-08 15:41:00,45.5,35.9,30.02,SSE,153,9.2,9.2,69,0.00,SCT,,0.03,158.0,WeatherDisplay:10.37,2013-01-08 21:41:00,
2013-01-08 15:46:00,45.4,35.8,30.02,SSE,150,11.5,11.5,69,0.00,SCT,,0.03,144.0,WeatherDisplay:10.37,2013-01-08 21:46:00,
2013-01-08 15:51:00,45.1,35.5,30.01,SE,136,6.9,6.9,69,0.00,SCT,,0.03,128.0,WeatherDisplay:10.37,2013-01-08 21:51:00,
2013-01-08 15:56:00,44.9,35.7,30.01,SE,143,6.9,6.9,70,0.00,SCT,,0.03,97.0,WeatherDisplay:10.37,2013-01-08 21:56:00,
2013-01-08 16:01:00,44.6,35.4,30.01,SE,140,16.1,16.1,70,0.00,BKN,,0.03,84.0,WeatherDisplay:10.37,2013-01-08 22:01:00,
2013-01-08 16:06:00,44.3,35.1,30.02,SSE,160,10.4,10.4,70,0.00,SCT,,0.03,76.0,WeatherDisplay:10.37,2013-01-08 22:06:00,
2013-01-08 16:11:00,44.0,34.8,30.02,South,174,11.0,11.0,70,0.00,BKN,,0.03,62.0,WeatherDisplay:10.37,2013-01-08 22:11:00,
2013-01-08 16:16:00,43.8,35.0,30.02,SSE,165,5.8,5.8,71,0.00,BKN,,0.03,44.0,WeatherDisplay:10.37,2013-01-08 22:16:00,
2013-01-08 16:21:00,43.5,34.7,30.02,South,171,10.4,10.4,71,0.00,OVC,,0.03,28.0,WeatherDisplay:10.37,2013-01-08 22:21:00,
2013-01-08 16:26:00,43.3,34.5,30.02,SE,142,4.6,4.6,71,0.00,OVC,,0.03,23.0,WeatherDisplay:10.37,2013-01-08 22:26:00,
2013-01-08 16:31:00,43.1,34.7,30.02,SSE,154,6.9,6.9,72,0.00,OVC,,0.03,19.0,WeatherDisplay:10.37,2013-01-08 22:31:00,
2013-01-08 16:36:00,42.8,35.8,30.02,SE,142,10.4,10.4,76,0.00,OVC,,0.03,14.0,WeatherDisplay:10.37,2013-01-08 22:36:00,
2013-01-08 16:41:00,42.4,34.7,30.02,SSE,159,6.9,6.9,74,0.00,BKN,,0.03,11.0,WeatherDisplay:10.37,2013-01-08 22:41:00,
2013-01-08 16:46:00,42.1,34.4,30.01,SSE,153,9.2,9.2,74,0.00,CLR,,0.03,7.0,WeatherDisplay:10.37,2013-01-08 22:46:00,
2013-01-08 16:51:00,41.8,34.5,30.01,SSE,155,10.4,10.4,75,0.00,OVC,,0.03,5.0,WeatherDisplay:10.37,2013-01-08 22:51:00,
2013-01-08 16:56:00,41.4,34.1,30.01,SE,140,19.6,19.6,75,0.00,OVC,,0.03,0.0,WeatherDisplay:10.37,2013-01-08 22:56:00,
2013-01-08 17:02:00,41.1,34.1,30.01,SE,145,11.5,11.5,76,0.00,CLR,,0.03,0.0,WeatherDisplay:10.37,2013-01-08 23:02:00,
2013-01-08 17:06:00,41.0,34.0,30.01,SSE,167,2.3,2.6,76,0.00,CLR,,0.03,0.0,WeatherDisplay:10.37,2013-01-08 23:06:00,
2013-01-08 17:12:00,40.7,33.7,30.01,SSE,162,3.5,3.6,76,0.00,CLR,,0.03,0.0,WeatherDisplay:10.37,2013-01-08 23:12:00,
2013-01-08 17:17:00,40.5,33.5,30.01,SSE,168,9.2,9.2,76,0.00,CLR,,0.03,0.0,WeatherDisplay:10.37,2013-01-08 23:17:00,
2013-01-08 17:22:00,40.4,33.4,30.00,SSE,157,5.8,5.8,76,0.00,CLR,,0.03,0.0,WeatherDisplay:10.37,2013-01-08 23:22:00,
2013-01-08 17:27:00,40.3,33.7,30.00,SE,136,9.2,9.2,77,0.00,CLR,,0.03,0.0,WeatherDisplay:10.37,2013-01-08 23:27:00,
2013-01-08 17:32:00,40.4,33.8,30.01,SSE,154,7.0,7.0,77,0.00,CLR,,0.03,0.0,WeatherDisplay:10.37,2013-01-08 23:32:00,
2013-01-08 17:37:00,40.4,33.4,30.00,SSE,159,9.2,9.2,76,0.00,CLR,,0.03,0.0,WeatherDisplay:10.37,2013-01-08 23:37:00,
2013-01-08 17:42:00,40.4,33.8,30.00,South,172,11.5,11.5,77,0.00,CLR,,0.03,0.0,WeatherDisplay:10.37,2013-01-08 23:42:00,
2013-01-08 17:47:00,40.4,33.8,30.00,SSE,147,6.9,6.9,77,0.00,CLR,,0.03,0.0,WeatherDisplay:10.37,2013-01-08 23:47:00,
2013-01-08 17:52:00,40.4,33.8,30.00,SSE,163,11.0,11.0,77,0.00,CLR,,0.03,0.0,WeatherDisplay:10.37,2013-01-08 23:52:00,
2013-01-08 17:57:00,40.3,33.7,30.01,SSE,162,10.4,10.4,77,0.00,CLR,,0.03,0.0,WeatherDisplay:10.37,2013-01-08 23:57:00,
2013-01-08 18:02:00,40.3,33.7,30.01,ESE,119,10.4,10.4,77,0.00,CLR,,0.03,0.0,WeatherDisplay:10.37,2013-01-09 00:02:00,
2013-01-08 18:07:00,40.3,34.0,30.01,SSE,163,12.7,12.7,78,0.00,CLR,,0.03,0.0,WeatherDisplay:10.37,2013-01-09 00:07:00,
2013-01-08 18:12:00,40.3,34.0,30.01,SE,144,11.5,11.5,78,0.00,CLR,,0.03,0.0,WeatherDisplay:10.37,2013-01-09 00:12:00,
2013-01-08 18:17:00,40.3,34.0,30.01,SSE,148,10.4,10.4,78,0.00,CLR,,0.03,0.0,WeatherDisplay:10.37,2013-01-09 00:17:00,
2013-01-08 18:22:00,40.2,33.9,30.01,SE,140,9.2,9.2,78,0.00,CLR,,0.03,0.0,WeatherDisplay:10.37,2013-01-09 00:22:00,
2013-01-08 18:27:00,40.2,34.2,30.00,SSE,166,6.9,6.9,79,0.00,CLR,,0.03,0.0,WeatherDisplay:10.37,2013-01-09 00:27:00,
2013-01-08 18:32:00,40.1,34.1,30.00,SSE,157,8.0,8.0,79,0.00,CLR,,0.03,0.0,WeatherDisplay:10.37,2013-01-09 00:32:00,
2013-01-08 18:37:00,40.0,34.0,30.01,SE,127,10.4,10.4,79,0.00,CLR,,0.03,0.0,WeatherDisplay:10.37,2013-01-09 00:37:00,
2013-01-08 18:42:00,39.9,33.9,30.01,SE,140,11.5,11.5,79,0.00,CLR,,0.03,0.0,WeatherDisplay:10.37,2013-01-09 00:42:00,
2013-01-08 18:47:00,39.8,34.1,30.01,South,180,12.7,12.7,80,0.00,CLR,,0.03,0.0,WeatherDisplay:10.37,2013-01-09 00:47:00,
2013-01-08 18:52:00,39.8,34.1,30.01,South,187,10.4,10.4,80,0.00,CLR,,0.03,0.0,WeatherDisplay:10.37,2013-01-09 00:52:00,
2013-01-08 18:57:00,39.9,34.2,30.02,SSE,152,8.1,8.1,80,0.00,CLR,,0.03,0.0,WeatherDisplay:10.37,2013-01-09 00:57:00,
2013-01-08 19:02:00,40.0,34.3,30.02,South,172,12.7,12.7,80,0.00,CLR,,0.03,0.0,WeatherDisplay:10.37,2013-01-09 01:02:00,
2013-01-08 19:07:00,40.2,34.5,30.03,South,182,13.8,13.8,80,0.00,CLR,,0.03,0.0,WeatherDisplay:10.37,2013-01-09 01:07:00,
2013-01-08 19:12:00,40.4,34.7,30.03,SSW,209,12.0,12.0,80,0.00,CLR,,0.03,0.0,WeatherDisplay:10.37,2013-01-09 01:12:00,
2013-01-08 19:17:00,40.6,34.6,30.03,South,171,10.4,10.4,79,0.00,CLR,,0.03,0.0,WeatherDisplay:10.37,2013-01-09 01:17:00,
2013-01-08 19:22:00,40.8,34.5,30.03,South,188,15.0,15.0,78,0.00,CLR,,0.03,0.0,WeatherDisplay:10.37,2013-01-09 01:22:00,
2013-01-08 19:27:00,41.1,34.4,30.04,SSW,194,6.9,6.9,77,0.00,CLR,,0.03,0.0,WeatherDisplay:10.37,2013-01-09 01:27:00,
2013-01-08 19:32:00,41.5,34.8,30.04,SSE,153,6.9,6.9,77,0.00,CLR,,0.03,0.0,WeatherDisplay:10.37,2013-01-09 01:32:00,
2013-01-08 19:37:00,41.6,34.6,30.04,South,184,11.5,11.5,76,0.00,CLR,,0.03,0.0,WeatherDisplay:10.37,2013-01-09 01:37:00,
2013-01-08 19:42:00,41.6,34.6,30.03,SE,137,12.7,12.7,76,0.00,CLR,,0.03,0.0,WeatherDisplay:10.37,2013-01-09 01:42:00,
2013-01-08 19:47:00,41.5,34.5,30.03,SSE,153,10.4,10.4,76,0.00,CLR,,0.03,0.0,WeatherDisplay:10.37,2013-01-09 01:47:00,
2013-01-08 19:52:00,41.4,34.4,30.03,SE,134,15.0,15.0,76,0.00,CLR,,0.03,0.0,WeatherDisplay:10.37,2013-01-09 01:52:00,
2013-01-08 19:57:00,41.3,34.3,30.03,SSE,167,9.0,9.0,76,0.00,CLR,,0.03,0.0,WeatherDisplay:10.37,2013-01-09 01:57:00,
2013-01-08 20:02:00,41.1,34.1,30.03,South,185,9.2,9.2,76,0.00,CLR,,0.03,0.0,WeatherDisplay:10.37,2013-01-09 02:02:00,
2013-01-08 20:07:00,41.0,34.3,30.04,South,171,12.7,12.7,77,0.00,CLR,,0.03,0.0,WeatherDisplay:10.37,2013-01-09 02:07:00,
2013-01-08 20:12:00,40.9,34.2,30.04,South,190,6.9,6.9,77,0.00,CLR,,0.03,0.0,WeatherDisplay:10.37,2013-01-09 02:12:00,
2013-01-08 20:17:00,40.9,34.2,30.03,SSE,152,6.9,6.9,77,0.00,CLR,,0.03,0.0,WeatherDisplay:10.37,2013-01-09 02:17:00,
2013-01-08 20:22:00,40.9,34.2,30.03,South,169,10.4,10.4,77,0.00,CLR,,0.03,0.0,WeatherDisplay:10.37,2013-01-09 02:22:00,
2013-01-08 20:27:00,40.8,34.1,30.03,South,188,11.5,11.5,77,0.00,CLR,,0.03,0.0,WeatherDisplay:10.37,2013-01-09 02:27:00,
2013-01-08 20:32:00,40.9,34.2,30.03,SSE,159,11.5,11.5,77,0.00,CLR,,0.03,0.0,WeatherDisplay:10.37,2013-01-09 02:32:00,
2013-01-08 20:37:00,40.9,34.2,30.03,South,189,12.7,12.7,77,0.00,CLR,,0.03,0.0,WeatherDisplay:10.37,2013-01-09 02:37:00,
2013-01-08 20:42:00,40.9,34.2,30.03,South,190,11.5,11.5,77,0.00,CLR,,0.03,0.0,WeatherDisplay:10.37,2013-01-09 02:42:00,
2013-01-08 20:47:00,40.9,34.2,30.03,South,171,13.8,13.8,77,0.00,CLR,,0.03,0.0,WeatherDisplay:10.37,2013-01-09 02:47:00,
2013-01-08 20:52:00,41.0,34.0,30.04,South,185,11.5,11.5,76,0.00,CLR,,0.03,0.0,WeatherDisplay:10.37,2013-01-09 02:52:00,
2013-01-08 20:57:00,41.1,34.1,30.04,SE,146,11.5,11.5,76,0.00,CLR,,0.03,0.0,WeatherDisplay:10.37,2013-01-09 02:57:00,
2013-01-08 21:02:00,41.2,34.2,30.03,SSE,165,11.5,11.5,76,0.00,CLR,,0.03,0.0,WeatherDisplay:10.37,2013-01-09 03:02:00,
2013-01-08 21:07:00,41.3,34.3,30.03,SSE,159,11.5,11.5,76,0.00,CLR,,0.03,0.0,WeatherDisplay:10.37,2013-01-09 03:07:00,
2013-01-08 21:12:00,41.3,34.3,30.02,SSE,148,13.8,13.8,76,0.00,CLR,,0.03,0.0,WeatherDisplay:10.37,2013-01-09 03:12:00,
2013-01-08 21:17:00,41.4,34.1,30.03,SSE,159,18.4,18.4,75,0.00,CLR,,0.03,0.0,WeatherDisplay:10.37,2013-01-09 03:17:00,
2013-01-08 21:22:00,41.4,34.4,30.03,South,179,12.7,12.7,76,0.00,CLR,,0.03,0.0,WeatherDisplay:10.37,2013-01-09 03:22:00,
2013-01-08 21:27:00,41.3,34.3,30.02,SSE,154,12.7,12.7,76,0.00,CLR,,0.03,0.0,WeatherDisplay:10.37,2013-01-09 03:27:00,
2013-01-08 21:32:00,41.2,34.2,30.02,South,181,13.8,13.8,76,0.00,CLR,,0.03,0.0,WeatherDisplay:10.37,2013-01-09 03:32:00,
2013-01-08 21:37:00,41.1,34.1,30.02,South,190,19.6,19.6,76,0.00,CLR,,0.03,0.0,WeatherDisplay:10.37,2013-01-09 03:37:00,
2013-01-08 21:42:00,41.1,34.1,30.02,SSW,207,13.8,13.8,76,0.00,CLR,,0.03,0.0,WeatherDisplay:10.37,2013-01-09 03:42:00,
2013-01-08 21:47:00,40.9,34.2,30.02,South,181,13.8,13.8,77,0.00,CLR,,0.03,0.0,WeatherDisplay:10.37,2013-01-09 03:47:00,
2013-01-08 21:52:00,40.7,34.0,30.03,SSW,200,19.6,19.6,77,0.00,CLR,,0.03,0.0,WeatherDisplay:10.37,2013-01-09 03:52:00,
2013-01-08 21:57:00,40.5,33.9,30.02,South,180,11.5,11.5,77,0.00,CLR,,0.03,0.0,WeatherDisplay:10.37,2013-01-09 03:57:00,
2013-01-08 22:02:00,40.4,34.1,30.02,South,188,12.7,12.7,78,0.00,CLR,,0.03,0.0,WeatherDisplay:10.37,2013-01-09 04:02:00,
2013-01-08 22:07:00,40.3,34.0,30.02,SSW,199,10.4,10.4,78,0.00,CLR,,0.03,0.0,WeatherDisplay:10.37,2013-01-09 04:07:00,
2013-01-08 22:12:00,40.2,33.9,30.02,SSW,201,12.7,12.7,78,0.00,CLR,,0.03,0.0,WeatherDisplay:10.37,2013-01-09 04:12:00,
2013-01-08 22:17:00,40.2,33.9,30.02,SSW,202,12.7,12.7,78,0.00,CLR,,0.03,0.0,WeatherDisplay:10.37,2013-01-09 04:17:00,
2013-01-08 22:22:00,40.2,33.9,30.02,South,190,11.5,11.5,78,0.00,CLR,,0.03,0.0,WeatherDisplay:10.37,2013-01-09 04:22:00,
2013-01-08 22:27:00,40.2,33.9,30.02,South,169,16.1,16.1,78,0.00,CLR,,0.03,0.0,WeatherDisplay:10.37,2013-01-09 04:27:00,
2013-01-08 22:32:00,40.3,34.0,30.02,SSW,196,12.7,12.7,78,0.00,CLR,,0.03,0.0,WeatherDisplay:10.37,2013-01-09 04:32:00,
2013-01-08 22:37:00,40.4,34.1,30.02,South,190,15.0,15.0,78,0.00,CLR,,0.03,0.0,WeatherDisplay:10.37,2013-01-09 04:37:00,
2013-01-08 22:42:00,40.5,34.2,30.02,SSE,167,13.8,13.8,78,0.00,CLR,,0.03,0.0,WeatherDisplay:10.37,2013-01-09 04:42:00,
2013-01-08 22:48:00,40.6,34.0,30.01,South,180,12.7,12.7,77,0.00,CLR,,0.03,0.0,WeatherDisplay:10.37,2013-01-09 04:48:00,
2013-01-08 22:53:00,40.6,34.0,30.02,SSW,198,18.4,18.4,77,0.00,CLR,,0.03,0.0,WeatherDisplay:10.37,2013-01-09 04:53:00,
2013-01-08 22:58:00,40.7,34.0,30.02,SSW,195,13.8,13.8,77,0.00,CLR,,0.03,0.0,WeatherDisplay:10.37,2013-01-09 04:58:00,
2013-01-08 23:01:00,40.7,34.0,30.02,SSW,204,15.0,15.0,77,0.00,CLR,,0.03,0.0,WeatherDisplay:10.37,2013-01-09 05:01:00,
2013-01-08 23:03:00,40.7,34.0,30.02,SSW,203,19.6,19.6,77,0.00,CLR,,0.03,0.0,WeatherDisplay:10.37,2013-01-09 05:03:00,
2013-01-08 23:08:00,40.7,34.0,30.02,SSW,194,20.7,20.7,77,0.00,CLR,,0.03,0.0,WeatherDisplay:10.37,2013-01-09 05:08:00,
2013-01-08 23:13:00,40.7,34.0,30.03,South,181,12.7,12.7,77,0.00,CLR,,0.03,0.0,WeatherDisplay:10.37,2013-01-09 05:13:00,
2013-01-08 23:18:00,40.6,33.6,30.03,South,186,12.7,12.7,76,0.00,CLR,,0.03,0.0,WeatherDisplay:10.37,2013-01-09 05:18:00,
2013-01-08 23:23:00,40.8,33.8,30.03,SSW,203,18.4,18.4,76,0.00,CLR,,0.03,0.0,WeatherDisplay:10.37,2013-01-09 05:23:00,
2013-01-08 23:28:00,41.0,33.7,30.03,SSW,198,13.8,13.8,75,0.00,CLR,,0.03,0.0,WeatherDisplay:10.37,2013-01-09 05:28:00,
2013-01-08 23:33:00,41.0,33.7,30.03,SSW,195,18.4,18.4,75,0.00,CLR,,0.03,0.0,WeatherDisplay:10.37,2013-01-09 05:33:00,
2013-01-08 23:38:00,41.1,33.8,30.03,SW,219,11.5,11.5,75,0.00,CLR,,0.03,0.0,WeatherDisplay:10.37,2013-01-09 05:38:00,
2013-01-08 23:43:00,41.1,33.8,30.03,SSW,200,12.7,12.7,75,0.00,CLR,,0.03,0.0,WeatherDisplay:10.37,2013-01-09 05:43:00,
2013-01-08 23:48:00,41.1,33.8,30.04,SSW,202,12.7,12.7,75,0.00,CLR,,0.03,0.0,WeatherDisplay:10.37,2013-01-09 05:48:00,
2013-01-08 23:53:00,41.1,33.8,30.04,SSW,208,19.6,19.6,75,0.00,CLR,,0.03,0.0,WeatherDisplay:10.37,2013-01-09 05:53:00,
2013-01-08 23:58:00,41.0,33.7,30.03,SSW,202,16.1,16.1,75,0.00,CLR,,0.03,0.0,WeatherDisplay:10.37,2013-01-09 05:58:00,